Location: Rio Tanui
(39.9167°N, 8.5167°E)
Time: 22:12:37
(UTC+00:00)

EO-79 - Visible Passes

Search period start: 13 January 2026 00:00
Search period end: 23 January 2026 00:00
Orbit: 513 x 528 km, 98.1° (Epoch: 13 January)

Date Brightness Start Highest point End Pass type
(mag) Time Alt. Az. Time Alt. Az. Time Alt. Az.
13 Jan ? 05:13:53 10° NNE 05:17:41 90° W 05:21:29 10° SSW visible
13 Jan ? 17:30:12 10° WSW 17:31:47 12° W 17:33:23 10° WNW visible
14 Jan ? 05:00:33 10° NNE 05:04:19 59° ESE 05:08:03 10° S visible
14 Jan ? 17:15:40 10° SW 17:18:17 18° W 17:20:55 10° NW visible
15 Jan ? 04:47:18 10° NNE 04:50:53 39° E 04:54:27 10° S visible
15 Jan ? 17:01:38 10° SSW 17:04:48 26° W 17:08:00 10° NW visible
16 Jan ? 04:34:11 10° NE 04:37:25 26° E 04:40:39 10° SSE visible
16 Jan ? 06:08:31 10° NNW 06:11:20 20° WNW 06:14:09 10° WSW visible
17 Jan ? 04:21:14 10° NE 04:23:55 18° E 04:26:35 10° SE visible
17 Jan ? 05:54:43 10° N 05:58:00 28° WNW 06:01:18 10° SW visible
18 Jan ? 04:08:42 10° ENE 04:10:22 12° E 04:12:02 10° ESE visible
18 Jan ? 05:41:03 10° N 05:44:38 41° WNW 05:48:14 10° SW visible
19 Jan ? 05:27:27 10° N 05:31:14 63° WNW 05:34:59 10° SSW visible
20 Jan ? 05:13:58 10° NNE 05:17:47 85° ESE 05:21:36 10° SSW visible
20 Jan ? 17:29:58 10° WSW 17:31:47 13° W 17:33:37 10° WNW visible
21 Jan ? 05:00:33 10° NNE 05:04:18 55° E 05:08:02 10° S visible
21 Jan ? 17:15:28 10° SW 17:18:12 19° W 17:20:58 10° NW visible
22 Jan ? 04:47:13 10° NNE 04:50:47 36° E 04:54:19 10° SSE visible
22 Jan ? 17:01:22 10° SSW 17:04:37 28° W 17:07:54 10° NW visible
